Location: Finney State Fishing Lake and Wildlife Area
(38.1834°N, 100.3310°W)
Time: 09:53:06
(UTC+00:00)

Cosmos 1455 Rocket - Pass Details

Date: 17 October 2021
Orbit: 604 x 630 km, 82.5° (Epoch: 28 November)

Event Time Altitude Azimuth Distance (km) Brightness Sun altitude
Rises 12:20:49 0° 354° (N) 2,928 6.4 -7.0°
Reaches altitude 10° 12:23:04 10° 356° (N) 2,015 5.6 -6.5°
Maximum altitude 12:27:32 75° 82° (E) 653 3.4 -5.6°
Drops below altitude 10° 12:31:57 10° 168° (SSE) 1,991 5.9 -4.8°
Sets 12:34:10 0° 170° (S) 2,889 6.8 -4.4°
